TimeEDT,TemperatureF,Dew PointF,Humidity,Sea Level PressureIn,VisibilityMPH,Wind Direction,Wind SpeedMPH,Gust SpeedMPH,PrecipitationIn,Events,Conditions,WindDirDegrees,DateUTC
12:53 AM,79.0,73.9,84,30.02,7.0,Calm,Calm,-,N/A,,Clear,0,2013-07-19 04:53:00
1:53 AM,77.0,73.0,88,30.02,6.0,Calm,Calm,-,N/A,,Clear,0,2013-07-19 05:53:00
2:53 AM,77.0,73.0,88,30.02,6.0,SSW,3.5,-,N/A,,Clear,210,2013-07-19 06:53:00
3:53 AM,75.9,72.0,87,30.01,6.0,Calm,Calm,-,N/A,,Clear,0,2013-07-19 07:53:00
4:53 AM,75.0,73.0,94,30.01,5.0,Calm,Calm,-,N/A,,Clear,0,2013-07-19 08:53:00
5:53 AM,75.0,72.0,90,30.02,5.0,Calm,Calm,-,N/A,,Clear,0,2013-07-19 09:53:00
6:53 AM,75.0,72.0,90,30.01,5.0,SW,3.5,-,N/A,,Clear,230,2013-07-19 10:53:00
7:53 AM,81.0,71.1,72,30.01,9.0,SW,4.6,-,N/A,,Clear,230,2013-07-19 11:53:00
8:53 AM,84.9,73.0,67,30.02,9.0,SW,5.8,-,N/A,,Clear,220,2013-07-19 12:53:00
9:53 AM,87.1,73.0,63,30.01,9.0,WSW,8.1,-,N/A,,Clear,240,2013-07-19 13:53:00
10:53 AM,90.0,73.9,59,30.01,10.0,West,10.4,-,N/A,,Clear,270,2013-07-19 14:53:00
11:53 AM,90.0,73.0,57,29.99,9.0,WSW,4.6,-,N/A,,Scattered Clouds,240,2013-07-19 15:53:00
12:53 PM,91.0,72.0,53,29.98,10.0,WSW,10.4,-,N/A,,Scattered Clouds,250,2013-07-19 16:53:00
1:53 PM,93.9,71.1,47,29.96,10.0,SW,8.1,-,N/A,,Clear,230,2013-07-19 17:53:00
2:53 PM,93.9,70.0,46,29.92,10.0,West,5.8,-,N/A,,Clear,260,2013-07-19 18:53:00
3:53 PM,96.1,71.1,44,29.91,10.0,WSW,10.4,-,N/A,,Partly Cloudy,250,2013-07-19 19:53:00
4:53 PM,93.9,72.0,49,29.89,10.0,SW,6.9,-,N/A,,Scattered Clouds,230,2013-07-19 20:53:00
5:53 PM,91.0,73.0,55,29.88,9.0,South,13.8,21.9,N/A,,Clear,190,2013-07-19 21:53:00
6:53 PM,82.9,66.9,58,29.90,10.0,WNW,10.4,20.7,N/A,,Scattered Clouds,300,2013-07-19 22:53:00
7:53 PM,81.0,68.0,65,29.92,10.0,Calm,Calm,-,N/A,,Mostly Cloudy,0,2013-07-19 23:53:00
8:53 PM,78.1,66.9,68,29.92,10.0,SSE,3.5,-,N/A,,Clear,160,2013-07-20 00:53:00
9:53 PM,75.9,66.9,74,29.91,10.0,SSW,3.5,-,N/A,,Clear,200,2013-07-20 01:53:00
10:53 PM,75.9,64.9,69,29.93,10.0,WSW,5.8,-,N/A,,Clear,240,2013-07-20 02:53:00
11:53 PM,73.9,64.9,73,29.90,10.0,South,4.6,-,N/A,,Clear,190,2013-07-20 03:53:00